QPF
0.03 0.07 0.10 0.08 0.08 0.03 0.02 0.01 0.00 0.00 0.01 0.01 0.00 0.00 0.00 0.01 0.04 0.05 0.07 0.06 0.04 0.01 0.00 0.00 0.00 0.01 0.00 0.00 0.00 0.00 0.00 0.00 0.00 0.00 0.00 0.00 0.00 0.00 0.00 0.00 0.00 0.00 0.00 0.01 0.00 0.00 0.00 0.00 0.01
0.07 0.14 0.13 0.16 0.07 0.01 0.02 0.01 0.01 0.01 0.01 0.01 0.00 0.00 0.00 0.00 0.01 0.03 0.08 0.08 0.04 0.01 0.00 0.00 0.00 0.00 0.00 0.00 0.00 0.00 0.00 0.00 0.00 0.00 0.00 0.00 0.00 0.00 0.00 0.00 0.00 0.00 0.00 0.01 0.00 0.00 0.00 0.00 0.01
0.11 0.14 0.15 0.13 0.03 0.01 0.02 0.03 0.02 0.01 0.01 0.00 0.00 0.00 0.01 0.02 0.02 0.03 0.05 0.06 0.03 0.01 0.01 0.01 0.01 0.01 0.00 0.00 0.00 0.00 0.00 0.00 0.00 0.00 0.00 0.00 0.00 0.00 0.00 0.00 0.00 0.00 0.00 0.00 0.00 0.00 0.00 0.00 0.00
0.13 0.21 0.19 0.09 0.03 0.03 0.03 0.04 0.03 0.01 0.00 0.01 0.01 0.00 0.02 0.02 0.03 0.03 0.05 0.06 0.05 0.02 0.01 0.02 0.02 0.02 0.01 0.00 0.00 0.00 0.01 0.01 0.00 0.00 0.00 0.00 0.00 0.00 0.00 0.00 0.00 0.00 0.00 0.00 0.00 0.00 0.00 0.00 0.00
0.15 0.24 0.18 0.12 0.08 0.07 0.07 0.05 0.02 0.01 0.01 0.02 0.02 0.01 0.03 0.04 0.04 0.04 0.05 0.06 0.06 0.07 0.04 0.03 0.04 0.03 0.02 0.02 0.01 0.01 0.01 0.01 0.01 0.01 0.00 0.00 0.00 0.00 0.00 0.00 0.00 0.00 0.00 0.00 0.00 0.00 0.00 0.00 0.00
0.25 0.33 0.21 0.16 0.16 0.14 0.11 0.07 0.02 0.02 0.02 0.03 0.03 0.04 0.06 0.06 0.06 0.07 0.08 0.10 0.12 0.12 0.09 0.08 0.10 0.08 0.06 0.05 0.04 0.03 0.02 0.01 0.01 0.01 0.01 0.01 0.00 0.00 0.00 0.00 0.00 0.00 0.00 0.00 0.00 0.00 0.00 0.00 0.00
0.18 0.24 0.18 0.21 0.19 0.23 0.13 0.06 0.03 0.04 0.04 0.05 0.05 0.07 0.09 0.10 0.08 0.07 0.09 0.13 0.14 0.14 0.13 0.13 0.15 0.17 0.15 0.13 0.11 0.08 0.06 0.03 0.02 0.01 0.01 0.01 0.00 0.00 0.00 0.00 0.00 0.00 0.00 0.00 0.00 0.00 0.00 0.00 0.00
0.07 0.12 0.17 0.25 0.24 0.22 0.12 0.04 0.02 0.02 0.03 0.05 0.05 0.07 0.18 0.20 0.13 0.12 0.12 0.15 0.14 0.14 0.14 0.13 0.13 0.14 0.17 0.17 0.14 0.13 0.11 0.09 0.06 0.03 0.02 0.02 0.01 0.00 0.00 0.00 0.00 0.00 0.00 0.00 0.00 0.00 0.00 0.00 0.00
0.07 0.09 0.24 0.36 0.25 0.16 0.12 0.08 0.03 0.03 0.03 0.04 0.04 0.05 0.08 0.11 0.13 0.13 0.14 0.13 0.14 0.13 0.11 0.12 0.11 0.12 0.14 0.12 0.12 0.15 0.15 0.14 0.11 0.08 0.07 0.05 0.02 0.01 0.01 0.01 0.01 0.01 0.00 0.00 0.00 0.00 0.00 0.00 0.00
0.07 0.13 0.28 0.19 0.10 0.08 0.08 0.06 0.04 0.03 0.06 0.05 0.03 0.04 0.05 0.07 0.08 0.09 0.09 0.09 0.11 0.10 0.08 0.09 0.10 0.10 0.11 0.10 0.13 0.14 0.12 0.11 0.08 0.08 0.07 0.05 0.04 0.03 0.02 0.02 0.03 0.04 0.03 0.01 0.00 0.00 0.00 0.00 0.00
0.06 0.10 0.08 0.07 0.06 0.04 0.03 0.03 0.03 0.03 0.05 0.04 0.04 0.04 0.03 0.03 0.04 0.05 0.06 0.05 0.07 0.07 0.07 0.07 0.07 0.07 0.07 0.08 0.10 0.12 0.11 0.11 0.10 0.10 0.09 0.09 0.07 0.05 0.04 0.03 0.03 0.05 0.06 0.02 0.00 0.00 0.00 0.00 0.00
0.06 0.07 0.05 0.05 0.03 0.03 0.02 0.01 0.01 0.01 0.02 0.03 0.03 0.03 0.03 0.03 0.02 0.01 0.02 0.03 0.05 0.05 0.06 0.06 0.06 0.06 0.07 0.08 0.08 0.09 0.11 0.12 0.13 0.11 0.11 0.12 0.13 0.12 0.09 0.05 0.04 0.04 0.04 0.04 0.02 0.00 0.00 0.01 0.01
0.05 0.04 0.04 0.03 0.03 0.02 0.02 0.01 0.01 0.02 0.01 0.02 0.03 0.03 0.02 0.02 0.01 0.01 0.01 0.02 0.02 0.03 0.03 0.04 0.05 0.05 0.05 0.06 0.07 0.08 0.11 0.11 0.12 0.13 0.12 0.14 0.18 0.18 0.16 0.11 0.07 0.06 0.07 0.07 0.03 0.02 0.01 0.02 0.01
0.03 0.02 0.02 0.02 0.01 0.02 0.02 0.01 0.01 0.02 0.01 0.01 0.02 0.02 0.02 0.02 0.02 0.02 0.02 0.02 0.02 0.03 0.03 0.03 0.02 0.03 0.03 0.04 0.04 0.05 0.07 0.09 0.11 0.12 0.12 0.14 0.16 0.17 0.20 0.19 0.14 0.10 0.08 0.09 0.07 0.05 0.04 0.03 0.02
0.01 0.01 0.03 0.03 0.02 0.03 0.02 0.01 0.01 0.01 0.00 0.00 0.00 0.01 0.01 0.01 0.01 0.01 0.02 0.02 0.02 0.03 0.03 0.03 0.03 0.04 0.03 0.02 0.02 0.02 0.03 0.07 0.11 0.12 0.14 0.19 0.22 0.20 0.22 0.25 0.23 0.21 0.18 0.14 0.13 0.11 0.07 0.05 0.03
0.02 0.05 0.08 0.07 0.05 0.05 0.03 0.02 0.01 0.00 0.00 0.00 0.00 0.00 0.01 0.01 0.01 0.01 0.00 0.01 0.01 0.02 0.02 0.02 0.01 0.02 0.02 0.01 0.01 0.01 0.02 0.05 0.09 0.09 0.12 0.20 0.27 0.26 0.22 0.22 0.22 0.24 0.25 0.23 0.22 0.18 0.11 0.06 0.04
0.06 0.09 0.09 0.07 0.06 0.04 0.03 0.02 0.01 0.01 0.00 0.00 0.00 0.00 0.00 0.00 0.00 0.00 0.00 0.00 0.00 0.00 0.00 0.00 0.00 0.01 0.00 0.00 0.00 0.01 0.01 0.04 0.08 0.08 0.08 0.13 0.20 0.25 0.25 0.23 0.24 0.25 0.27 0.26 0.23 0.22 0.16 0.10 0.06
0.02 0.02 0.02 0.02 0.04 0.04 0.02 0.01 0.01 0.01 0.00 0.00 0.00 0.00 0.00 0.00 0.00 0.00 0.00 0.00 0.00 0.00 0.00 0.00 0.00 0.00 0.00 0.00 0.00 0.00 0.00 0.00 0.01 0.03 0.04 0.05 0.08 0.13 0.19 0.21 0.27 0.34 0.34 0.28 0.24 0.23 0.20 0.14 0.10
0.01 0.00 0.00 0.00 0.01 0.01 0.00 0.00 0.00 0.01 0.00 0.00 0.00 0.00 0.00 0.00 0.00 0.00 0.00 0.00 0.00 0.00 0.00 0.00 0.00 0.00 0.00 0.00 0.00 0.00 0.00 0.00 0.00 0.01 0.01 0.03 0.04 0.07 0.10 0.12 0.18 0.25 0.30 0.31 0.29 0.25 0.23 0.21 0.18
0.00 0.00 0.00 0.00 0.00 0.00 0.00 0.00 0.00 0.01 0.01 0.00 0.00 0.00 0.00 0.00 0.00 0.00 0.00 0.00 0.00 0.01 0.01 0.00 0.00 0.00 0.00 0.00 0.00 0.00 0.00 0.00 0.00 0.01 0.01 0.02 0.03 0.04 0.06 0.10 0.14 0.21 0.25 0.26 0.27 0.27 0.26 0.24 0.24
0.00 0.00 0.00 0.00 0.00 0.00 0.00 0.00 0.01 0.01 0.01 0.00 0.00 0.00 0.00 0.00 0.00 0.00 0.00 0.00 0.01 0.01 0.00 0.00 0.00 0.00 0.00 0.00 0.00 0.00 0.00 0.00 0.00 0.00 0.01 0.01 0.03 0.04 0.05 0.08 0.10 0.13 0.18 0.20 0.21 0.22 0.25 0.27 0.29
0.00 0.00 0.00 0.00 0.00 0.00 0.00 0.01 0.02 0.02 0.01 0.00 0.00 0.00 0.00 0.00 0.00 0.00 0.00 0.00 0.01 0.00 0.00 0.00 0.00 0.00 0.00 0.00 0.00 0.00 0.01 0.01 0.01 0.01 0.01 0.02 0.03 0.05 0.06 0.09 0.12 0.12 0.13 0.18 0.18 0.19 0.21 0.24 0.27
0.00 0.00 0.00 0.00 0.00 0.00 0.00 0.01 0.02 0.01 0.00 0.00 0.00 0.00 0.00 0.00 0.00 0.00 0.00 0.00 0.00 0.00 0.00 0.00 0.00 0.00 0.00 0.00 0.00 0.01 0.02 0.02 0.02 0.01 0.02 0.04 0.09 0.09 0.07 0.09 0.14 0.17 0.15 0.15 0.20 0.19 0.19 0.18 0.19
0.00 0.00 0.00 0.00 0.00 0.00 0.00 0.00 0.01 0.00 0.00 0.00 0.00 0.00 0.00 0.00 0.00 0.00 0.00 0.00 0.00 0.00 0.00 0.00 0.00 0.00 0.00 0.00 0.00 0.01 0.02 0.02 0.03 0.02 0.03 0.05 0.09 0.10 0.08 0.08 0.10 0.15 0.18 0.18 0.18 0.20 0.20 0.19 0.18
0.00 0.00 0.00 0.00 0.00 0.00 0.00 0.00 0.00 0.00 0.00 0.00 0.00 0.00 0.00 0.00 0.00 0.00 0.00 0.00 0.00 0.00 0.00 0.00 0.00 0.00 0.00 0.00 0.00 0.01 0.03 0.03 0.04 0.04 0.04 0.04 0.05 0.08 0.09 0.08 0.09 0.11 0.15 0.17 0.17 0.19 0.20 0.22 0.19
0.00 0.00 0.00 0.00 0.00 0.00 0.00 0.00 0.00 0.00 0.00 0.00 0.00 0.00 0.00 0.00 0.00 0.00 0.00 0.00 0.00 0.00 0.00 0.00 0.00 0.00 0.00 0.00 0.01 0.01 0.03 0.04 0.05 0.06 0.07 0.06 0.06 0.08 0.08 0.08 0.09 0.09 0.10 0.13 0.12 0.14 0.19 0.21 0.20
0.00 0.00 0.00 0.00 0.00 0.00 0.00 0.00 0.00 0.00 0.00 0.00 0.00 0.00 0.00 0.00 0.00 0.00 0.00 0.00 0.00 0.00 0.00 0.00 0.00 0.00 0.01 0.01 0.01 0.02 0.02 0.03 0.04 0.04 0.06 0.07 0.08 0.08 0.09 0.09 0.09 0.11 0.12 0.11 0.11 0.12 0.14 0.18 0.18
0.00 0.00 0.00 0.00 0.00 0.00 0.00 0.00 0.00 0.00 0.00 0.00 0.00 0.00 0.00 0.00 0.00 0.00 0.00 0.00 0.00 0.00 0.00 0.00 0.00 0.01 0.01 0.01 0.01 0.02 0.02 0.02 0.03 0.03 0.04 0.05 0.07 0.08 0.08 0.07 0.06 0.09 0.12 0.12 0.12 0.12 0.14 0.17 0.19
0.00 0.00 0.00 0.00 0.00 0.00 0.00 0.00 0.00 0.00 0.00 0.00 0.00 0.00 0.00 0.00 0.00 0.00 0.00 0.00 0.00 0.00 0.00 0.00 0.00 0.00 0.01 0.01 0.01 0.02 0.03 0.05 0.06 0.05 0.07 0.06 0.06 0.06 0.06 0.05 0.05 0.07 0.10 0.11 0.11 0.11 0.12 0.13 0.15
0.00 0.00 0.00 0.00 0.00 0.00 0.00 0.00 0.00 0.00 0.00 0.00 0.00 0.00 0.00 0.00 0.00 0.00 0.00 0.00 0.00 0.00 0.00 0.00 0.00 0.00 0.00 0.01 0.01 0.02 0.03 0.04 0.05 0.06 0.08 0.08 0.07 0.06 0.05 0.05 0.06 0.08 0.09 0.10 0.09 0.10 0.11 0.12 0.13
MSLP
1012.66 1013.81 1015.09 1016.31 1017.29 1017.91 1018.09 1017.86 1017.33 1016.65 1016.03 1015.61 1015.48 1015.62 1015.96 1016.37 1016.70 1016.84 1016.73 1016.38 1015.87 1015.33 1014.87 1014.58 1014.51 1014.64 1014.88 1015.16 1015.39 1015.51 1015.53 1015.46 1015.36 1015.29 1015.30 1015.41 1015.58 1015.79 1015.98 1016.11 1016.15 1016.12 1016.04 1015.94 1015.85 1015.80 1015.78 1015.78 1015.79
1013.07 1014.39 1015.77 1017.01 1017.94 1018.45 1018.47 1018.08 1017.40 1016.61 1015.89 1015.40 1015.19 1015.27 1015.55 1015.89 1016.16 1016.25 1016.12 1015.80 1015.35 1014.90 1014.55 1014.37 1014.38 1014.57 1014.85 1015.14 1015.38 1015.51 1015.54 1015.50 1015.45 1015.43 1015.48 1015.60 1015.77 1015.95 1016.09 1016.17 1016.17 1016.10 1015.99 1015.89 1015.81 1015.78 1015.78 1015.79 1015.79
1013.57 1015.01 1016.45 1017.68 1018.53 1018.92 1018.82 1018.31 1017.54 1016.68 1015.93 1015.40 1015.17 1015.19 1015.39 1015.64 1015.82 1015.84 1015.68 1015.35 1014.95 1014.57 1014.31 1014.22 1014.31 1014.54 1014.84 1015.13 1015.36 1015.49 1015.53 1015.52 1015.51 1015.53 1015.61 1015.75 1015.92 1016.06 1016.16 1016.18 1016.12 1016.02 1015.90 1015.81 1015.75 1015.74 1015.76 1015.79 1015.80
1014.15 1015.68 1017.13 1018.31 1019.08 1019.36 1019.17 1018.60 1017.80 1016.95 1016.21 1015.71 1015.46 1015.44 1015.57 1015.72 1015.79 1015.72 1015.48 1015.14 1014.76 1014.43 1014.23 1014.20 1014.33 1014.57 1014.86 1015.12 1015.32 1015.42 1015.46 1015.46 1015.48 1015.54 1015.65 1015.81 1015.97 1016.09 1016.15 1016.13 1016.04 1015.92 1015.80 1015.72 1015.69 1015.71 1015.77 1015.82 1015.84
1014.81 1016.37 1017.80 1018.91 1019.59 1019.79 1019.55 1018.97 1018.21 1017.42 1016.76 1016.30 1016.08 1016.04 1016.09 1016.14 1016.09 1015.91 1015.60 1015.21 1014.82 1014.51 1014.34 1014.33 1014.46 1014.68 1014.92 1015.12 1015.25 1015.30 1015.31 1015.30 1015.33 1015.42 1015.57 1015.74 1015.90 1016.02 1016.06 1016.02 1015.93 1015.81 1015.71 1015.65 1015.66 1015.72 1015.81 1015.88 1015.91
1015.52 1017.07 1018.43 1019.46 1020.05 1020.20 1019.94 1019.40 1018.71 1018.04 1017.49 1017.12 1016.94 1016.89 1016.89 1016.84 1016.69 1016.40 1016.00 1015.56 1015.14 1014.83 1014.65 1014.62 1014.72 1014.87 1015.02 1015.12 1015.16 1015.14 1015.09 1015.07 1015.10 1015.21 1015.37 1015.57 1015.75 1015.87 1015.92 1015.89 1015.80 1015.71 1015.64 1015.62 1015.67 1015.77 1015.88 1015.96 1016.00
1016.22 1017.72 1018.99 1019.91 1020.43 1020.53 1020.28 1019.81 1019.24 1018.70 1018.28 1018.02 1017.90 1017.86 1017.82 1017.69 1017.44 1017.06 1016.59 1016.10 1015.65 1015.31 1015.11 1015.03 1015.06 1015.12 1015.16 1015.15 1015.08 1014.97 1014.86 1014.80 1014.82 1014.94 1015.12 1015.34 1015.54 1015.68 1015.75 1015.74 1015.68 1015.61 1015.58 1015.61 1015.69 1015.81 1015.94 1016.04 1016.07
1016.85 1018.26 1019.42 1020.23 1020.67 1020.74 1020.52 1020.13 1019.68 1019.29 1019.01 1018.85 1018.80 1018.77 1018.70 1018.53 1018.21 1017.77 1017.25 1016.72 1016.24 1015.87 1015.63 1015.50 1015.45 1015.41 1015.34 1015.21 1015.03 1014.84 1014.67 1014.57 1014.57 1014.68 1014.87 1015.10 1015.32 1015.48 1015.56 1015.57 1015.55 1015.52 1015.52 1015.57 1015.68 1015.83 1015.97 1016.06 1016.10
1017.33 1018.64 1019.68 1020.39 1020.75 1020.80 1020.62 1020.31 1019.97 1019.71 1019.55 1019.49 1019.49 1019.48 1019.40 1019.20 1018.85 1018.38 1017.84 1017.30 1016.81 1016.43 1016.16 1015.98 1015.85 1015.71 1015.54 1015.31 1015.05 1014.78 1014.55 1014.42 1014.40 1014.50 1014.68 1014.90 1015.12 1015.28 1015.37 1015.40 1015.39 1015.38 1015.41 1015.49 1015.61 1015.77 1015.91 1016.01 1016.04
1017.63 1018.83 1019.76 1020.37 1020.68 1020.72 1020.57 1020.34 1020.10 1019.94 1019.86 1019.87 1019.91 1019.92 1019.84 1019.63 1019.28 1018.81 1018.28 1017.76 1017.29 1016.91 1016.62 1016.40 1016.21 1016.01 1015.76 1015.46 1015.13 1014.81 1014.54 1014.38 1014.33 1014.41 1014.56 1014.76 1014.95 1015.09 1015.17 1015.19 1015.19 1015.19 1015.23 1015.31 1015.45 1015.60 1015.75 1015.85 1015.89
1017.77 1018.87 1019.70 1020.24 1020.51 1020.55 1020.45 1020.27 1020.11 1020.01 1019.99 1020.03 1020.08 1020.09 1020.01 1019.80 1019.47 1019.03 1018.55 1018.07 1017.64 1017.28 1016.99 1016.75 1016.53 1016.28 1015.98 1015.64 1015.27 1014.92 1014.63 1014.43 1014.36 1014.39 1014.51 1014.66 1014.80 1014.90 1014.95 1014.95 1014.93 1014.92 1014.96 1015.05 1015.18 1015.34 1015.49 1015.61 1015.66
1017.80 1018.81 1019.56 1020.05 1020.31 1020.37 1020.31 1020.20 1020.09 1020.02 1020.02 1020.05 1020.09 1020.08 1019.98 1019.79 1019.48 1019.10 1018.67 1018.25 1017.86 1017.54 1017.26 1017.02 1016.78 1016.51 1016.19 1015.83 1015.45 1015.08 1014.77 1014.56 1014.45 1014.43 1014.48 1014.56 1014.64 1014.68 1014.68 1014.64 1014.60 1014.58 1014.61 1014.69 1014.83 1015.00 1015.16 1015.29 1015.38
1017.80 1018.73 1019.43 1019.91 1020.17 1020.28 1020.27 1020.20 1020.13 1020.08 1020.06 1020.06 1020.05 1020.01 1019.89 1019.69 1019.41 1019.08 1018.71 1018.34 1018.01 1017.72 1017.46 1017.22 1016.97 1016.69 1016.37 1016.00 1015.62 1015.26 1014.94 1014.69 1014.54 1014.46 1014.44 1014.44 1014.44 1014.41 1014.36 1014.29 1014.22 1014.19 1014.21 1014.30 1014.43 1014.61 1014.79 1014.95 1015.08
1017.85 1018.72 1019.39 1019.87 1020.17 1020.34 1020.39 1020.38 1020.33 1020.28 1020.22 1020.17 1020.10 1020.00 1019.85 1019.64 1019.37 1019.07 1018.74 1018.42 1018.12 1017.85 1017.60 1017.36 1017.10 1016.82 1016.49 1016.14 1015.76 1015.40 1015.07 1014.80 1014.60 1014.45 1014.35 1014.27 1014.19 1014.10 1014.00 1013.90 1013.82 1013.78 1013.81 1013.89 1014.04 1014.23 1014.44 1014.63 1014.79
1018.03 1018.83 1019.48 1019.98 1020.34 1020.57 1020.69 1020.74 1020.72 1020.65 1020.56 1020.44 1020.29 1020.13 1019.93 1019.69 1019.42 1019.13 1018.83 1018.53 1018.25 1017.98 1017.72 1017.46 1017.19 1016.90 1016.57 1016.22 1015.85 1015.49 1015.16 1014.85 1014.60 1014.39 1014.22 1014.06 1013.92 1013.77 1013.64 1013.52 1013.43 1013.40 1013.43 1013.53 1013.69 1013.89 1014.12 1014.34 1014.54
1018.34 1019.07 1019.70 1020.22 1020.64 1020.95 1021.15 1021.25 1021.25 1021.17 1021.04 1020.85 1020.63 1020.40 1020.14 1019.87 1019.59 1019.29 1019.00 1018.70 1018.40 1018.11 1017.83 1017.54 1017.24 1016.93 1016.61 1016.26 1015.90 1015.54 1015.19 1014.87 1014.57 1014.30 1014.06 1013.84 1013.64 1013.46 1013.30 1013.17 1013.09 1013.06 1013.11 1013.22 1013.39 1013.60 1013.85 1014.10 1014.33
1018.74 1019.40 1020.01 1020.55 1021.03 1021.41 1021.68 1021.83 1021.86 1021.77 1021.59 1021.34 1021.05 1020.75 1020.44 1020.13 1019.83 1019.52 1019.21 1018.89 1018.57 1018.25 1017.92 1017.60 1017.27 1016.94 1016.60 1016.26 1015.92 1015.56 1015.21 1014.86 1014.53 1014.21 1013.92 1013.64 1013.40 1013.18 1013.01 1012.88 1012.80 1012.79 1012.84 1012.95 1013.13 1013.35 1013.61 1013.87 1014.14
1019.17 1019.75 1020.33 1020.90 1021.43 1021.87 1022.21 1022.40 1022.44 1022.33 1022.11 1021.80 1021.45 1021.09 1020.74 1020.40 1020.08 1019.76 1019.43 1019.09 1018.73 1018.37 1018.00 1017.63 1017.27 1016.93 1016.59 1016.26 1015.92 1015.58 1015.24 1014.88 1014.52 1014.16 1013.82 1013.50 1013.22 1012.97 1012.78 1012.64 1012.56 1012.55 1012.60 1012.71 1012.88 1013.09 1013.35 1013.63 1013.93
1019.53 1020.06 1020.63 1021.22 1021.79 1022.29 1022.66 1022.87 1022.91 1022.77 1022.50 1022.14 1021.74 1021.33 1020.95 1020.59 1020.26 1019.94 1019.60 1019.24 1018.86 1018.46 1018.05 1017.64 1017.26 1016.90 1016.57 1016.26 1015.95 1015.63 1015.30 1014.94 1014.56 1014.18 1013.80 1013.43 1013.10 1012.82 1012.60 1012.44 1012.34 1012.31 1012.34 1012.43 1012.58 1012.78 1013.03 1013.33 1013.65
1019.80 1020.29 1020.87 1021.49 1022.09 1022.63 1023.02 1023.23 1023.23 1023.05 1022.72 1022.30 1021.85 1021.41 1021.01 1020.65 1020.33 1020.01 1019.68 1019.32 1018.93 1018.50 1018.06 1017.63 1017.23 1016.87 1016.56 1016.27 1015.99 1015.70 1015.39 1015.05 1014.66 1014.25 1013.83 1013.42 1013.04 1012.71 1012.44 1012.23 1012.09 1012.02 1012.01 1012.07 1012.19 1012.37 1012.62 1012.93 1013.28
1019.96 1020.46 1021.07 1021.73 1022.37 1022.93 1023.31 1023.48 1023.43 1023.17 1022.76 1022.28 1021.77 1021.30 1020.89 1020.55 1020.25 1019.97 1019.67 1019.32 1018.93 1018.49 1018.04 1017.60 1017.20 1016.85 1016.54 1016.28 1016.04 1015.79 1015.51 1015.17 1014.78 1014.35 1013.89 1013.43 1012.99 1012.59 1012.25 1011.98 1011.78 1011.65 1011.58 1011.59 1011.68 1011.84 1012.08 1012.41 1012.80
1020.06 1020.62 1021.29 1022.01 1022.69 1023.24 1023.59 1023.70 1023.56 1023.20 1022.69 1022.12 1021.56 1021.06 1020.65 1020.33 1020.07 1019.83 1019.57 1019.25 1018.88 1018.45 1018.00 1017.56 1017.15 1016.81 1016.52 1016.29 1016.08 1015.86 1015.60 1015.28 1014.89 1014.44 1013.94 1013.42 1012.91 1012.44 1012.01 1011.66 1011.38 1011.17 1011.05 1011.00 1011.05 1011.19 1011.43 1011.78 1012.21
1020.19 1020.84 1021.59 1022.37 1023.09 1023.63 1023.93 1023.94 1023.69 1023.21 1022.58 1021.92 1021.28 1020.75 1020.34 1020.04 1019.82 1019.63 1019.42 1019.15 1018.80 1018.39 1017.94 1017.50 1017.09 1016.75 1016.48 1016.26 1016.07 1015.88 1015.65 1015.34 1014.95 1014.47 1013.93 1013.36 1012.78 1012.22 1011.71 1011.27 1010.90 1010.62 1010.43 1010.34 1010.35 1010.47 1010.72 1011.08 1011.56
1020.40 1021.16 1022.01 1022.86 1023.59 1024.11 1024.33 1024.25 1023.86 1023.25 1022.50 1021.73 1021.03 1020.45 1020.04 1019.76 1019.58 1019.43 1019.27 1019.03 1018.72 1018.32 1017.88 1017.43 1017.02 1016.67 1016.40 1016.19 1016.01 1015.84 1015.62 1015.32 1014.93 1014.44 1013.87 1013.25 1012.61 1011.97 1011.38 1010.85 1010.41 1010.05 1009.80 1009.66 1009.64 1009.74 1009.99 1010.37 1010.88
1020.72 1021.59 1022.53 1023.43 1024.17 1024.65 1024.79 1024.59 1024.08 1023.33 1022.47 1021.60 1020.83 1020.22 1019.80 1019.53 1019.38 1019.27 1019.13 1018.93 1018.64 1018.25 1017.81 1017.36 1016.93 1016.57 1016.29 1016.08 1015.91 1015.73 1015.52 1015.23 1014.84 1014.35 1013.76 1013.10 1012.42 1011.73 1011.07 1010.47 1009.96 1009.54 1009.23 1009.05 1008.99 1009.08 1009.32 1009.71 1010.23
1021.12 1022.08 1023.08 1024.01 1024.73 1025.15 1025.21 1024.90 1024.28 1023.43 1022.47 1021.53 1020.71 1020.07 1019.63 1019.37 1019.23 1019.14 1019.03 1018.85 1018.56 1018.19 1017.74 1017.28 1016.85 1016.47 1016.17 1015.95 1015.77 1015.60 1015.39 1015.11 1014.73 1014.24 1013.65 1012.98 1012.26 1011.54 1010.84 1010.19 1009.62 1009.15 1008.80 1008.57 1008.48 1008.55 1008.77 1009.14 1009.65
1021.53 1022.53 1023.55 1024.46 1025.14 1025.49 1025.48 1025.09 1024.38 1023.46 1022.46 1021.48 1020.64 1019.99 1019.54 1019.28 1019.14 1019.06 1018.95 1018.77 1018.49 1018.12 1017.68 1017.21 1016.77 1016.38 1016.07 1015.84 1015.65 1015.47 1015.27 1015.00 1014.63 1014.15 1013.57 1012.92 1012.20 1011.46 1010.74 1010.06 1009.46 1008.95 1008.55 1008.28 1008.15 1008.17 1008.36 1008.69 1009.16
1021.85 1022.84 1023.82 1024.67 1025.28 1025.56 1025.48 1025.03 1024.29 1023.36 1022.35 1021.39 1020.56 1019.93 1019.49 1019.23 1019.09 1019.00 1018.88 1018.70 1018.42 1018.05 1017.61 1017.15 1016.71 1016.33 1016.02 1015.78 1015.58 1015.41 1015.21 1014.95 1014.59 1014.14 1013.59 1012.95 1012.26 1011.53 1010.81 1010.11 1009.49 1008.94 1008.50 1008.19 1008.01 1007.98 1008.10 1008.37 1008.78
1021.98 1022.90 1023.80 1024.55 1025.06 1025.26 1025.12 1024.66 1023.94 1023.05 1022.10 1021.21 1020.44 1019.85 1019.44 1019.19 1019.04 1018.93 1018.81 1018.61 1018.33 1017.97 1017.56 1017.12 1016.71 1016.35 1016.05 1015.81 1015.62 1015.44 1015.24 1014.99 1014.65 1014.22 1013.70 1013.09 1012.43 1011.73 1011.01 1010.33 1009.69 1009.12 1008.64 1008.28 1008.04 1007.94 1007.99 1008.19 1008.52
1021.90 1022.70 1023.46 1024.08 1024.48 1024.60 1024.42 1023.98 1023.32 1022.52 1021.69 1020.91 1020.25 1019.73 1019.37 1019.13 1018.98 1018.86 1018.71 1018.51 1018.24 1017.91 1017.53 1017.14 1016.77 1016.44 1016.17 1015.94 1015.76 1015.58 1015.37 1015.12 1014.79 1014.38 1013.88 1013.31 1012.68 1012.01 1011.32 1010.64 1010.00 1009.41 1008.90 1008.49 1008.20 1008.03 1008.00 1008.11 1008.35
Thickness
5829 5826 5821 5809 5784 5766 5763 5776 5786 5788 5790 5798 5802 5795 5783 5775 5767 5760 5785 5793 5792 5789 5786 5784 5783 5782 5780 5780 5779 5779 5778 5778 5778 5777 5777 5777 5777 5776 5776 5775 5775 5775 5774 5774 5774 5774 5774 5773 5773
5830 5826 5815 5798 5770 5750 5759 5778 5782 5789 5796 5803 5801 5794 5785 5780 5786 5784 5787 5791 5792 5789 5787 5785 5783 5782 5781 5780 5779 5778 5778 5778 5777 5777 5776 5776 5775 5775 5775 5774 5774 5774 5773 5773 5773 5773 5772 5772 5772
5831 5826 5804 5785 5768 5757 5764 5778 5786 5796 5803 5802 5793 5790 5783 5779 5786 5786 5790 5793 5791 5789 5787 5785 5784 5782 5781 5780 5779 5778 5777 5777 5776 5776 5775 5775 5774 5774 5773 5773 5772 5772 5772 5772 5771 5771 5771 5771 5771
5827 5812 5798 5777 5766 5774 5776 5782 5792 5794 5797 5798 5791 5780 5782 5790 5790 5791 5794 5793 5790 5788 5786 5785 5783 5782 5780 5779 5778 5777 5777 5776 5775 5775 5774 5774 5773 5772 5772 5772 5771 5771 5771 5770 5770 5770 5770 5770 5770
5823 5798 5777 5765 5766 5774 5781 5789 5793 5787 5785 5785 5785 5772 5772 5787 5793 5793 5792 5791 5788 5786 5785 5783 5782 5780 5779 5778 5777 5776 5775 5775 5774 5774 5773 5773 5772 5772 5771 5771 5770 5770 5769 5769 5769 5769 5769 5769 5769
5803 5786 5761 5752 5759 5770 5778 5787 5788 5781 5779 5781 5779 5769 5767 5782 5786 5786 5788 5786 5785 5784 5782 5780 5779 5778 5778 5776 5775 5775 5774 5773 5773 5773 5772 5772 5771 5771 5770 5770 5769 5769 5769 5768 5768 5768 5768 5768 5768
5794 5776 5760 5758 5758 5764 5776 5785 5778 5773 5770 5773 5778 5765 5765 5774 5779 5782 5782 5781 5780 5779 5777 5776 5774 5774 5774 5774 5774 5773 5772 5772 5771 5771 5771 5770 5770 5769 5769 5769 5769 5768 5768 5768 5767 5767 5767 5767 5767
5805 5780 5761 5757 5756 5761 5777 5783 5778 5773 5767 5777 5775 5758 5756 5766 5774 5776 5775 5773 5772 5771 5770 5770 5769 5770 5770 5770 5771 5771 5771 5770 5770 5769 5769 5769 5768 5768 5768 5768 5767 5767 5767 5767 5767 5766 5766 5766 5766
5808 5770 5752 5756 5757 5761 5774 5774 5774 5773 5768 5767 5767 5762 5762 5768 5770 5766 5764 5762 5762 5763 5763 5764 5763 5764 5764 5766 5766 5767 5768 5768 5768 5768 5768 5767 5767 5766 5766 5766 5766 5766 5766 5766 5766 5765 5765 5765 5765
5793 5763 5763 5772 5770 5764 5767 5767 5766 5758 5753 5753 5756 5760 5763 5763 5760 5755 5751 5750 5751 5751 5754 5756 5756 5756 5758 5759 5761 5762 5763 5764 5764 5765 5765 5765 5764 5764 5764 5764 5764 5764 5764 5764 5764 5764 5764 5764 5764
5791 5772 5775 5776 5776 5772 5764 5760 5761 5750 5740 5744 5745 5748 5752 5752 5748 5745 5743 5742 5742 5743 5745 5747 5748 5748 5750 5751 5753 5755 5756 5758 5758 5759 5761 5761 5761 5761 5761 5761 5762 5763 5763 5762 5763 5762 5763 5763 5763
5784 5779 5781 5778 5780 5771 5763 5757 5750 5746 5743 5749 5748 5747 5745 5741 5738 5736 5734 5734 5734 5735 5736 5738 5739 5740 5741 5742 5744 5746 5748 5750 5751 5754 5755 5756 5757 5757 5757 5758 5759 5760 5761 5760 5760 5761 5761 5761 5762
5780 5775 5777 5775 5772 5766 5761 5752 5746 5743 5748 5748 5745 5741 5736 5733 5730 5729 5729 5728 5726 5725 5726 5727 5729 5729 5731 5732 5734 5737 5739 5742 5745 5747 5749 5750 5752 5753 5753 5754 5755 5756 5757 5757 5757 5758 5758 5759 5760
5785 5778 5773 5771 5767 5762 5753 5746 5743 5739 5745 5741 5736 5731 5728 5725 5723 5721 5719 5717 5715 5715 5715 5717 5718 5719 5720 5722 5723 5726 5729 5732 5735 5739 5742 5744 5746 5748 5749 5750 5751 5752 5753 5753 5754 5755 5756 5757 5758
5787 5770 5763 5762 5761 5755 5749 5731 5733 5739 5738 5731 5726 5723 5720 5717 5715 5711 5709 5708 5706 5706 5706 5707 5708 5708 5709 5711 5713 5716 5719 5722 5726 5730 5734 5737 5739 5741 5744 5745 5746 5748 5749 5749 5750 5751 5753 5754 5755
5775 5757 5745 5754 5756 5754 5739 5713 5729 5735 5729 5720 5717 5713 5710 5708 5707 5705 5703 5701 5699 5698 5697 5697 5698 5698 5699 5700 5703 5706 5709 5713 5716 5720 5725 5729 5732 5734 5737 5739 5741 5743 5744 5745 5745 5746 5747 5749 5751
5754 5740 5739 5746 5754 5749 5732 5715 5725 5729 5722 5712 5708 5704 5701 5699 5699 5697 5696 5694 5692 5690 5688 5688 5688 5688 5689 5690 5693 5696 5699 5702 5706 5711 5715 5720 5724 5727 5729 5732 5735 5737 5739 5740 5741 5741 5742 5742 5745
5744 5740 5738 5736 5745 5740 5724 5715 5720 5723 5717 5707 5702 5698 5695 5692 5690 5690 5689 5687 5685 5683 5681 5679 5679 5679 5680 5681 5683 5686 5689 5693 5696 5701 5705 5710 5715 5719 5723 5726 5729 5731 5732 5734 5735 5736 5737 5738 5740
5760 5747 5736 5738 5747 5734 5719 5712 5713 5715 5711 5703 5697 5693 5690 5686 5686 5684 5682 5680 5677 5675 5673 5671 5670 5670 5670 5670 5672 5674 5677 5682 5686 5691 5696 5701 5706 5711 5715 5720 5722 5725 5727 5729 5730 5731 5731 5731 5734
5756 5740 5734 5738 5745 5730 5713 5708 5711 5711 5707 5702 5696 5690 5687 5682 5679 5677 5675 5672 5669 5667 5666 5665 5663 5663 5663 5663 5664 5665 5668 5672 5676 5681 5687 5692 5698 5702 5708 5712 5715 5718 5720 5722 5724 5725 5725 5726 5728
5747 5738 5733 5730 5734 5727 5710 5697 5701 5705 5705 5700 5694 5689 5684 5679 5674 5672 5669 5666 5664 5662 5660 5660 5658 5657 5657 5657 5657 5659 5661 5664 5667 5672 5678 5684 5689 5694 5700 5704 5708 5711 5714 5716 5718 5720 5721 5720 5722
5740 5751 5746 5735 5715 5701 5705 5679 5689 5693 5693 5691 5687 5683 5679 5677 5673 5669 5666 5663 5660 5658 5657 5656 5654 5653 5653 5652 5652 5651 5652 5654 5658 5663 5669 5675 5681 5686 5692 5697 5701 5704 5708 5711 5713 5716 5717 5718 5716
5748 5756 5746 5735 5718 5703 5699 5681 5679 5688 5683 5684 5683 5681 5679 5676 5672 5668 5664 5661 5659 5657 5655 5653 5651 5650 5649 5649 5648 5647 5647 5650 5654 5658 5662 5668 5673 5679 5684 5689 5694 5698 5701 5705 5708 5711 5713 5715 5715
5756 5743 5730 5715 5703 5688 5697 5681 5675 5678 5683 5684 5683 5681 5678 5675 5671 5667 5664 5660 5657 5655 5652 5651 5648 5647 5646 5645 5645 5644 5644 5646 5649 5652 5656 5660 5666 5671 5676 5682 5686 5691 5695 5698 5702 5706 5708 5711 5712
5741 5714 5694 5690 5677 5681 5698 5685 5679 5691 5694 5690 5684 5681 5679 5674 5670 5665 5662 5658 5655 5653 5651 5648 5646 5644 5644 5643 5642 5642 5642 5643 5644 5647 5650 5654 5658 5663 5669 5675 5679 5684 5688 5692 5696 5700 5703 5706 5707
5736 5716 5692 5681 5675 5679 5692 5682 5685 5700 5700 5695 5689 5684 5679 5675 5670 5666 5663 5659 5655 5653 5650 5647 5645 5643 5642 5641 5640 5640 5640 5640 5642 5644 5646 5649 5652 5657 5663 5668 5673 5678 5682 5686 5690 5694 5697 5701 5703
5734 5720 5715 5693 5690 5679 5681 5687 5694 5699 5695 5692 5687 5683 5678 5675 5672 5668 5664 5660 5657 5653 5651 5648 5645 5642 5641 5640 5639 5639 5639 5639 5640 5641 5644 5646 5649 5654 5658 5662 5667 5671 5676 5680 5683 5687 5691 5694 5697
5742 5728 5705 5695 5682 5671 5681 5681 5677 5689 5689 5689 5685 5681 5680 5678 5673 5670 5665 5662 5658 5656 5652 5650 5646 5643 5641 5639 5638 5638 5637 5637 5638 5639 5640 5643 5646 5649 5653 5657 5661 5664 5668 5673 5677 5681 5685 5687 5691
5733 5728 5709 5690 5684 5672 5667 5678 5702 5697 5695 5690 5687 5685 5683 5680 5675 5670 5667 5664 5660 5657 5654 5650 5647 5644 5641 5639 5637 5636 5635 5636 5636 5637 5638 5639 5642 5645 5648 5651 5654 5657 5661 5666 5670 5674 5678 5682 5685
5738 5728 5710 5694 5690 5681 5670 5680 5714 5707 5702 5696 5691 5689 5687 5683 5678 5674 5669 5665 5661 5658 5655 5651 5648 5644 5641 5639 5637 5635 5634 5634 5634 5634 5635 5637 5639 5641 5644 5647 5649 5652 5656 5660 5663 5667 5671 5675 5678